STARLINK-11382, 62881

Orbit data source: Space-Track

STARLINK-11382, 62881 is a payload satellite owned by SpaceX/Seattle (US) in LEO that was launched on Tue, 04 Feb 2025 UTC via an FALCON 9 launch vehicle from the Air Force Eastern Test Range (AFETR). Payload-class satellites include a variety of spacecraft equipped with specific instruments for various scientific and technological missions. These include communications satellites like Starlink; space stations such as the ISS; scientific satellites like the Hubble; Earth observation satellites from companies like Planet Labs, Umbra, and HawkEye 360; GPS; miniature CubeSats for education and research; and military/defense satellites.

Loading next visibility...
Identifier
62881, 2025-024C
Orbit
LEO
Country
Flag of USUS
Related business
Manufacturer
SpaceX/Seattle
Mission
Operational Commercial Communications
Bus & Motor
STARLINK V2MD, Unknown motor
Mass
960 kg wet, ~910 kg dry
Launch date (UTC)
2025-02-04 (7 months ago)
Launch vehicle
FALCON 9
Launch site
Air Force Eastern Test Range (AFETR)
Object type
Payload
Rocket body
Debris
Shape & HBR
Box + 2 Pan, 14.5 m
Radar Cross Section
36.964 m², Large (>1 m²)

Expand to show TLE details & history
Last TLE update: 11 hours ago

TLE from 11 hours ago
0 STARLINK-11382
1 62881U 25024C   25261.04757978  .00215228  00000-0  16333-2 0  9999
2 62881  42.9998 142.1627 0002583 249.5033 110.5557 15.70903488 36317
Epoch: 2025-09-18T01:08Z
TLE epoch observation values (Epoch: 2025-09-18T01:08:30.893Z)
Latitude
-0.00003°
Longitude
127.81916°
Altitude
356.696 km
Speed
7.697 km/s
True Right ascension
09h 28m 39s
True Declination
0° 00' 00"
Sunlit
Object was in daylight at epoch
Visualization orbit readout
Latitude
Unknown
Longitude
Unknown
Altitude
Unknown
Speed
Unknown
Apparent Right ascension
Unknown
Apparent Declination
Unknown
Sunlit
N/A
Visualization observer readout
Local Sidereal Time
05:28:41
Azimuth
Unknown
Elevation
Unknown
Doppler factor
Unknown
Orbital elements
Apogee altitude
360.035 km
Perigee altitude
356.555 km
Semi-major axis
6,736.432 km
Eccentricity
0.00026
Inclination
42.9998°
RAAN
142.1627°
Arg. of periapsis
249.5033°
True anomaly
110.58341°
Mean anomaly
110.5557°
Eccentric anomaly
110.56956°
Mean motion
3.92553 °/min
Orbital period
91.71 mins
BSTAR
0.0016333
Loading maneuver chart data...
Computing Atmospheric mass density...
Loading historical data...
Loading historical data...
Loading historical data...
Loading historical data...
Loading historical data...
Loading historical data...
Loading historical data...

Documentation

Showing up to 5 results
|